Location: Bishop�s Knoyle
(51.0728°N, 2.1714°W)
Time: 12:47:10
(UTC+00:00)

NOSS 3-4 (C) - Pass Details

Date: 21 January 2021
Orbit: 878 x 1335 km, 63.4° (Epoch: 16 February)

Event Time Altitude Azimuth Distance (km) Brightness Sun altitude
Rises 20:52:23 0° 303° (WNW) 3,646 7.4 -38.8°
Reaches altitude 10° 20:55:10 10° 313° (NW) 2,758 6.4 -39.2°
Enters shadow 20:58:31 26° 340° (NNW) 1,930 5.2 -39.7°
